SYN001 KSLC-KSEA

Flight info

Callsign SYN001
Flight time N/A
Altitude 38000
Route CGULL1 TWF PDT CHINS5
Aircraft BCS3/M-SBDE2E3GIRWXY/LB1

Departure

Time 2026-05-04 04:18
Airport Salt Lake City International Airport (KSLC)

Arrival

Time N/A
Airport Seattle–Tacoma International Airport (KSEA)
Time Latitude Longitude Altitude Speed Heading
2026-05-04 03:58 40.78941 -111.95727 4235 ft 0 kts 46°
2026-05-04 03:59 40.78939 -111.95730 4235 ft 0 kts 46°
2026-05-04 04:01 40.78930 -111.95742 4235 ft 2 kts 46°
2026-05-04 04:01 40.78919 -111.95758 4235 ft 2 kts 58°
2026-05-04 04:02 40.78913 -111.95778 4236 ft 2 kts 86°
2026-05-04 04:02 40.78914 -111.95800 4234 ft 2 kts 113°
2026-05-04 04:02 40.78923 -111.95819 4232 ft 2 kts 140°
2026-05-04 04:02 40.78937 -111.95830 4235 ft 2 kts 167°
2026-05-04 04:03 40.78942 -111.95832 4234 ft 0 kts 177°
2026-05-04 04:03 40.78941 -111.95832 4237 ft 1 kts 181°
2026-05-04 04:04 40.78897 -111.95840 4237 ft 13 kts 189°
2026-05-04 04:04 40.78786 -111.95910 4238 ft 20 kts 191°
2026-05-04 04:04 40.78641 -111.95916 4235 ft 22 kts 180°
2026-05-04 04:04 40.78549 -111.95966 4234 ft 13 kts 219°
2026-05-04 04:05 40.78466 -111.96003 4235 ft 13 kts 180°
2026-05-04 04:05 40.78371 -111.96002 4233 ft 16 kts 180°
2026-05-04 04:05 40.78206 -111.96003 4231 ft 31 kts 180°
2026-05-04 04:05 40.77957 -111.96004 4234 ft 37 kts 180°
2026-05-04 04:06 40.77778 -111.96064 4238 ft 25 kts 181°
2026-05-04 04:06 40.77616 -111.96066 4242 ft 22 kts 181°
2026-05-04 04:06 40.77483 -111.96064 4242 ft 14 kts 179°
2026-05-04 04:06 40.77450 -111.96063 4242 ft 0 kts 179°
2026-05-04 04:07 40.77446 -111.96063 4242 ft 2 kts 179°
2026-05-04 04:07 40.77404 -111.96063 4242 ft 10 kts 181°
2026-05-04 04:07 40.77368 -111.96064 4242 ft 0 kts 181°
2026-05-04 04:09 40.77363 -111.96064 4240 ft 2 kts 181°
2026-05-04 04:10 40.77317 -111.96066 4240 ft 9 kts 184°
2026-05-04 04:10 40.77282 -111.96091 4240 ft 0 kts 230°
2026-05-04 04:11 40.77277 -111.96102 4239 ft 3 kts 241°
2026-05-04 04:11 40.77282 -111.96176 4239 ft 15 kts 309°
2026-05-04 04:11 40.77403 -111.96203 4238 ft 18 kts
2026-05-04 04:12 40.77527 -111.96203 4241 ft 18 kts
2026-05-04 04:12 40.77659 -111.96202 4239 ft 21 kts
2026-05-04 04:12 40.77834 -111.96202 4238 ft 32 kts
2026-05-04 04:12 40.78043 -111.96201 4233 ft 37 kts
2026-05-04 04:13 40.78230 -111.96174 4233 ft 20 kts 45°
2026-05-04 04:13 40.78241 -111.96055 4231 ft 19 kts 92°
2026-05-04 04:13 40.78334 -111.96004 4232 ft 21 kts 360°
2026-05-04 04:13 40.78520 -111.96004 4235 ft 31 kts
2026-05-04 04:14 40.78736 -111.96002 4239 ft 30 kts
2026-05-04 04:14 40.78939 -111.96007 4238 ft 29 kts
2026-05-04 04:14 40.79144 -111.96001 4236 ft 29 kts 359°
2026-05-04 04:14 40.79352 -111.96003 4230 ft 31 kts
2026-05-04 04:15 40.79563 -111.96002 4230 ft 30 kts 360°
2026-05-04 04:15 40.79757 -111.96002 4229 ft 16 kts 360°
2026-05-04 04:15 40.79856 -111.96009 4232 ft 13 kts 340°
2026-05-04 04:15 40.79888 -111.96097 4233 ft 11 kts 268°
2026-05-04 04:16 40.79867 -111.96161 4232 ft 12 kts 225°
2026-05-04 04:16 40.79783 -111.96206 4233 ft 0 kts 186°
2026-05-04 04:17 40.79762 -111.96208 4233 ft 13 kts 183°
2026-05-04 04:17 40.79475 -111.96213 4231 ft 67 kts 181°
2026-05-04 04:17 40.78856 -111.96208 4238 ft 110 kts 180°
2026-05-04 04:17 40.77955 -111.96202 4239 ft 147 kts 178°
2026-05-04 04:18 40.76961 -111.96175 4723 ft 144 kts 178°
2026-05-04 04:18 40.75920 -111.96522 4993 ft 164 kts 212°
2026-05-04 04:18 40.75202 -111.97638 5546 ft 163 kts 250°
2026-05-04 04:18 40.75107 -111.99109 5992 ft 164 kts 279°
2026-05-04 04:19 40.75296 -112.00608 6329 ft 170 kts 280°
2026-05-04 04:19 40.75519 -112.02232 6567 ft 188 kts 280°
2026-05-04 04:19 40.75765 -112.03993 6884 ft 204 kts 280°
2026-05-04 04:19 40.76033 -112.05907 7287 ft 222 kts 280°
2026-05-04 04:20 40.76326 -112.07974 7848 ft 236 kts 280°
2026-05-04 04:20 40.76645 -112.10174 8391 ft 251 kts 281°
2026-05-04 04:20 40.77416 -112.12303 8921 ft 267 kts 309°
2026-05-04 04:20 40.78836 -112.13993 9439 ft 283 kts 321°
2026-05-04 04:21 40.80432 -112.15620 10059 ft 292 kts 322°
2026-05-04 04:21 40.82070 -112.17275 10595 ft 306 kts 322°
2026-05-04 04:21 40.83802 -112.19024 10996 ft 321 kts 321°
2026-05-04 04:21 40.85607 -112.20849 11550 ft 328 kts 321°
2026-05-04 04:22 40.87428 -112.22690 12227 ft 332 kts 321°
2026-05-04 04:22 40.89268 -112.24554 12924 ft 335 kts 321°
2026-05-04 04:22 40.91094 -112.26404 13615 ft 338 kts 321°
2026-05-04 04:22 40.92967 -112.28303 14261 ft 340 kts 321°
2026-05-04 04:23 40.94850 -112.30214 14902 ft 342 kts 321°
2026-05-04 04:23 40.96747 -112.32142 15556 ft 345 kts 321°
2026-05-04 04:23 40.98660 -112.34088 16203 ft 348 kts 321°
2026-05-04 04:23 41.00585 -112.36048 16836 ft 351 kts 321°
2026-05-04 04:24 41.02529 -112.38031 17481 ft 354 kts 321°
2026-05-04 04:24 41.04485 -112.40029 18100 ft 357 kts 321°
2026-05-04 04:24 41.06462 -112.42047 18642 ft 360 kts 322°
2026-05-04 04:24 41.08551 -112.43922 19197 ft 364 kts 326°
2026-05-04 04:25 41.10701 -112.45731 19724 ft 367 kts 326°
2026-05-04 04:25 41.12844 -112.47524 20272 ft 370 kts 326°
2026-05-04 04:25 41.15034 -112.49358 20809 ft 374 kts 326°
2026-05-04 04:25 41.17214 -112.51249 21319 ft 376 kts 322°
2026-05-04 04:26 41.19319 -112.53332 21833 ft 378 kts 321°
2026-05-04 04:26 41.21417 -112.55464 22344 ft 381 kts 320°
2026-05-04 04:26 41.23537 -112.57623 22838 ft 384 kts 320°
2026-05-04 04:26 41.25669 -112.59795 23319 ft 387 kts 321°
2026-05-04 04:27 41.27770 -112.62055 23711 ft 388 kts 314°
2026-05-04 04:27 41.29649 -112.64642 24089 ft 390 kts 311°
2026-05-04 04:27 41.31484 -112.67314 24484 ft 393 kts 311°
2026-05-04 04:27 41.33324 -112.70007 24858 ft 395 kts 311°
2026-05-04 04:28 41.35158 -112.72693 25222 ft 397 kts 311°
2026-05-04 04:28 41.37023 -112.75426 25576 ft 400 kts 311°
2026-05-04 04:28 41.38899 -112.78178 25944 ft 402 kts 311°
2026-05-04 04:28 41.40776 -112.80950 26272 ft 404 kts 310°
2026-05-04 04:29 41.42629 -112.83771 26626 ft 406 kts 310°
2026-05-04 04:29 41.44485 -112.86614 26959 ft 408 kts 310°
2026-05-04 04:29 41.46349 -112.89471 27285 ft 409 kts 310°
2026-05-04 04:29 41.48147 -112.92227 27577 ft 411 kts 310°
2026-05-04 04:30 41.50030 -112.95116 27912 ft 413 kts 310°
2026-05-04 04:30 41.51920 -112.98017 28211 ft 414 kts 310°
2026-05-04 04:30 41.53816 -113.00929 28497 ft 416 kts 310°
2026-05-04 04:30 41.55691 -113.03812 28783 ft 418 kts 310°
2026-05-04 04:31 41.57600 -113.06749 29078 ft 419 kts 310°
2026-05-04 04:31 41.59516 -113.09700 29349 ft 420 kts 310°
2026-05-04 04:31 41.61432 -113.12653 29618 ft 422 kts 310°
2026-05-04 04:31 41.63362 -113.15630 29864 ft 423 kts 310°
2026-05-04 04:32 41.65287 -113.18603 30064 ft 425 kts 309°
2026-05-04 04:32 41.67220 -113.21590 30295 ft 425 kts 309°
2026-05-04 04:32 41.69154 -113.24583 30464 ft 427 kts 309°
2026-05-04 04:32 41.71100 -113.27597 30667 ft 427 kts 309°
2026-05-04 04:33 41.73042 -113.30608 30841 ft 429 kts 309°
2026-05-04 04:33 41.74996 -113.33640 31028 ft 429 kts 309°
2026-05-04 04:33 41.76948 -113.36673 31184 ft 430 kts 309°
2026-05-04 04:33 41.78906 -113.39718 31354 ft 431 kts 309°
2026-05-04 04:34 41.80845 -113.42735 31510 ft 432 kts 309°
2026-05-04 04:34 41.82809 -113.45796 31653 ft 433 kts 309°
2026-05-04 04:34 41.84772 -113.48857 31792 ft 434 kts 309°
2026-05-04 04:34 41.86737 -113.51926 31936 ft 434 kts 309°
2026-05-04 04:35 41.88710 -113.55010 32076 ft 435 kts 309°
2026-05-04 04:35 41.90684 -113.58098 32196 ft 436 kts 309°
2026-05-04 04:35 41.92655 -113.61185 32306 ft 437 kts 309°
2026-05-04 04:35 41.94637 -113.64293 32403 ft 438 kts 309°
2026-05-04 04:36 41.96623 -113.67409 32518 ft 438 kts 309°
2026-05-04 04:36 41.98610 -113.70532 32588 ft 440 kts 309°
2026-05-04 04:36 42.00573 -113.73617 32784 ft 438 kts 309°
2026-05-04 04:36 42.02555 -113.76732 32902 ft 438 kts 309°
2026-05-04 04:37 42.08515 -113.86079 33322 ft 438 kts 309°
2026-05-04 04:37 42.10501 -113.89196 33455 ft 438 kts 309°
2026-05-04 04:38 42.12478 -113.92299 33634 ft 437 kts 309°
2026-05-04 04:38 42.14438 -113.95372 33760 ft 437 kts 309°
2026-05-04 04:38 42.16418 -113.98476 33908 ft 436 kts 309°
2026-05-04 04:38 42.18393 -114.01571 34012 ft 435 kts 308°
2026-05-04 04:39 42.20327 -114.04701 34165 ft 434 kts 308°
2026-05-04 04:39 42.22271 -114.07835 34271 ft 434 kts 308°
2026-05-04 04:39 42.24218 -114.10942 34401 ft 433 kts 308°
2026-05-04 04:39 42.26167 -114.14039 34536 ft 432 kts 308°
2026-05-04 04:40 42.28115 -114.17133 34674 ft 431 kts 308°
2026-05-04 04:40 42.30033 -114.20182 34819 ft 431 kts 308°
2026-05-04 04:40 42.31997 -114.23309 34970 ft 430 kts 308°
2026-05-04 04:40 42.33908 -114.26355 35020 ft 431 kts 308°
2026-05-04 04:41 42.37804 -114.32579 35088 ft 435 kts 308°
2026-05-04 04:41 42.41712 -114.38840 35273 ft 435 kts 308°
2026-05-04 04:42 42.45613 -114.45110 35431 ft 435 kts 308°
2026-05-04 04:42 42.49532 -114.51360 35561 ft 435 kts 309°
2026-05-04 04:43 42.53535 -114.57525 35719 ft 435 kts 309°
2026-05-04 04:43 42.57507 -114.63655 35842 ft 435 kts 309°
2026-05-04 04:44 42.61495 -114.69831 35980 ft 434 kts 308°
2026-05-04 04:44 42.65471 -114.76004 36133 ft 433 kts 308°
2026-05-04 04:45 42.69442 -114.82186 36298 ft 433 kts 308°
2026-05-04 04:47 42.83233 -115.03763 36864 ft 431 kts 308°
2026-05-04 04:47 42.87160 -115.09938 37002 ft 431 kts 308°
2026-05-04 04:48 42.91085 -115.16121 37153 ft 430 kts 308°
2026-05-04 04:49 42.98867 -115.28421 37449 ft 428 kts 307°
2026-05-04 04:49 43.00817 -115.31518 37500 ft 428 kts 306°
2026-05-04 04:49 43.04104 -115.38233 37615 ft 425 kts 298°